Regional Weather Roundup
Issued by NWS Midland/Odessa, TX

Home | Current Version | Previous Version | Text Only | Print | Product List | Glossary On
Versions: 1 2 3 4 5 6 7 8 9 10 11 12 13 14 15 16 17 18 19 20 21 22 23 24 25 26 27 28 29 30 31 32 33 34 35 36 37 38 39 40 41 42 43 44 45 46 47 48 49 50
000
ASUS44 KMAF 210110
RWRMAF
MIDLAND AREA WEATHER ROUNDUP
NATIONAL WEATHER SERVICE MIDLAND TX
700 PM CST MON NOV 20 2017

...IN SOUTHWEST TEXAS AND SOUTHEAST NEW MEXICO...

CITY           SKY/WX    TMP DP  RH WIND       PRES   REMARKS
ALPINE         CLOUDY    60  22  23 SW13      30.09S
ANDREWS        FAIR      60  27  29 SW9       29.92S
ARTESIA        CLOUDY    57  18  21 SW14      29.93S
BIG SPRING     CLOUDY    56  29  35 S10       29.92S
CARLSBAD       CLEAR     59  16  18 W6        29.93R
DRYDEN           N/A     56  33  42 E6        29.97R
FORT STOCKTON  CLEAR     60  30  32 SE3       29.95F
GUAD PASS      CLOUDY    55  15  20 SW18G33   30.07R
HOBBS          CLEAR     54  23  30 SW8       29.93R
LAMESA         FAIR      54  27  35 S8        29.90S
MARFA          CLOUDY    52  23  32 N3        30.08S
MIDLAND AIRPK  CLOUDY    62  27  26 S8        29.93R
MIDLAND INTL   CLOUDY    61  26  26 S8        29.92S
ODESSA         CLOUDY    59  26  28 SW12      29.93S
PECOS          CLOUDY    60  26  27 SW9       29.93S
PRESIDIO       FAIR      63  28  27 CALM      30.03R
SEMINOLE       CLOUDY    53  23  31 SW3       29.93R
SNYDER         CLOUDY    57  30  36 S10       29.89F
WINK           CLOUDY    55  26  32 SW8       29.91R
$$
...OTHER STATIONS IN TEXAS...

CITY           SKY/WX    TMP DP  RH WIND       PRES   REMARKS
ABILENE        CLOUDY    55  34  45 S10       29.91S
AMARILLO       CLOUDY    48  22  35 SE12      29.83F
AUSTIN         PTCLDY    54  41  61 SW6       30.02R
BROWNSVILLE    CLOUDY    68  62  81 N5        30.02R
CORPUS CHRISTI CLOUDY    65  57  75 NE6       30.04R
DALLAS FTW     PTCLDY    58  33  39 S12       29.95F
DEL RIO        CLEAR     60  38  43 SE9       29.99R
EL PASO        MOCLDY    61  24  24 SW13      30.03F
HOUSTON INT    PTCLDY    57  49  74 SE8       30.07R
LUBBOCK        CLOUDY    61   9  12 SW12      29.85S
SAN ANGELO     CLOUDY    58  32  37 S9        29.95F
SAN ANTONIO    PTCLDY    63  41  44 S6        30.03R
WACO           CLEAR     56  38  50 S9        30.00F
WICHITA FALLS  CLOUDY    57  29  34 S17       29.80R
$$
...OTHER LOCATIONS IN NEW MEXICO...

CITY           SKY/WX    TMP DP  RH WIND       PRES   REMARKS
ALAMOGORDO     CLOUDY    50  10  20 E6        30.05S
ALBUQUERQUE    CLOUDY    53  -1  11 W3        30.08R
CANNON AFB     CLOUDY    59  -2   8 W10       29.87S
CLOVIS         CLOUDY    56   4  12 W9        29.87R
HOLLOMAN AFB   CLOUDY    55  12  18 CALM      30.05F
ROSWELL        CLOUDY    53  20  27 S8        29.91F
RUIDOSO        CLOUDY    52  -8   8 NW12      30.08F
SANTA FE       CLOUDY    44   4  19 W5        30.07S
TRUTH OR CONSE MOCLDY    57  15  19 NE5       30.05R
TUCUMCARI      CLOUDY    59   2  10 W8        29.81R
$$




USA.gov is the U.S. government's official web portal to all federal, state and local government web resources and services.